Regional Weather Roundup
Issued by NWS

Home | Current Version | Previous Version | Graphics & Text | Print | Product List | Glossary On
Versions: 1 2 3 4 5 6 7 8 9 10 11 12 13 14 15 16 17 18 19 20 21 22 23 24 25 26 27 28 29 30 31 32 33 34 35 36 37 38 39 40 41 42 43 44 45 46 47 48 49 50
000
ASUS43 KDMX 201401
RWRIA

WEATHER ROUNDUP FOR IOWA
NATIONAL WEATHER SERVICE DES MOINES IA
800 AM CST TUE FEB 20 2018

NOTE: "FAIR" INDICATES FEW OR NO CLOUDS BELOW 12,000 FEET WITH NO
SIGNIFICANT WEATHER AND/OR OBSTRUCTIONS TO VISIBILITY.

* - THESE STATIONS ARE NOT NWS STATIONS...THUS NOT UNDER NWS
QUALITY CONTROL.  THEY ALSO DO NOT REPORT WEATHER SUCH
AS PRECIPITATION OR FOG.

IAZ001>003-012>014-020>022-031>034-043>046-201500-
   NORTHWEST IOWA

CITY           SKY/WX    TMP DP  RH WIND       PRES   REMARKS
CARROLL *      CLOUDY    19  18  93 NW24      29.90F WCI   2
CHEROKEE *     FLURRIES  14  11  88 NW7       30.00R WCI   3
DENISON *      CLOUDY    18  14  86 NW18      29.97R WCI   2
LE MARS *      CLOUDY    12   7  79 MISG      30.02R
ORANGE CITY *  CLOUDY    10   9  92 NW10      29.95S WCI  -3
SHELDON *      CLOUDY    10   7  85 MISG      29.93R
SIOUX CITY     CLOUDY    11   6  81 NW14      30.03R WCI  -5
SPENCER        FLURRIES  14   9  80 NW13G22   29.94R WCI   0
STORM LAKE *   CLEAR     16  12  86 NW16      29.94R WCI   0
$$

IAZ055>058-069>071-079>083-090>094-201500-
   SOUTHWEST IOWA

CITY           SKY/WX    TMP DP  RH WIND       PRES   REMARKS
ATLANTIC *     CLOUDY    21  21 100 NW13      29.94R WCI   9
AUDUBON *      CLOUDY    19  18  93 CALM      29.93R
CLARINDA *       N/A     23  23 100 NW14G23   30.00R WCI  11
COUNCIL BLFS * CLOUDY    18  18 100 NW17      29.97R WCI   2
CRESTON *      PTCLDY    25  23  93 NW15      29.92R FOG     WCI  12
HARLAN  *      CLOUDY    19  19 100 NW16      29.99R WCI   5
LAMONI         FRZ RAIN  29  27  92 NW13      29.89S WCI  19
RED OAK *      CLOUDY    21  19  93 NW15      29.97R WCI   8
SHENANDOAH *   CLOUDY    23  21  93 NW13      30.00R WCI  11
$$

IAZ047>049-059>061-072>074-084-201500-
   CENTRAL IOWA

CITY           SKY/WX    TMP DP  RH WIND       PRES   REMARKS
AMES           CLOUDY    26  22  84 NW15      29.89R WCI  14
ANKENY *       CLOUDY    27  25  93 MISG      29.91R
BOONE *        MIX PCPN  23  21  93 MISG      29.89R
CHARITON *     LGT RAIN  30  30 100 NW10G18   29.89R WCI  21
DES MOINES     FRZ RAIN  28  25  88 NW14      29.91R FOG     WCI  17
GRINNELL*      CLOUDY    31  30  98 W7        29.88R FOG     WCI  24
KNOXVILLE *    CLOUDY    30  30 100 W12       29.89R FOG     WCI  21
MARSHALLTOWN   FRZ RAIN  30  28  93 NW12      29.85R WCI  21
NEWTON *       CLOUDY    30  30 100 NW10      29.87R FOG     WCI  21
PELLA *        LGT SNOW  31  30  96 W7        29.89R WCI  24
PERRY *        CLOUDY    25  23  93 NW8       29.92S FOG     WCI  16
$$

IAZ004>006-015-016-023>025-035-036-201500-
   NORTH CENTRAL IOWA

CITY           SKY/WX    TMP DP  RH WIND       PRES   REMARKS
CLARION *      CLOUDY    21  21 100 NW14      29.90R WCI   8
ESTHERVILLE    CLOUDY    14  11  87 NW15      29.90S WCI  -1
FORT DODGE *   CLOUDY    20  17  88 W12       29.92R WCI   8
MASON CITY     CLOUDY    21  18  88 NW12      29.88R WCI   9
FOREST CITY *  CLOUDY    21  21 100 NW6       29.89R WCI  14
WEBSTER CITY * CLOUDY    21  19  93 NW18      29.89R WCI   6
IOWA FALLS *   MIX PCPN  26  25  94 NW10      29.87R WCI  17
$$

IAZ007>011-017>019-026>030-037>042-050>054-066-201500-
   NORTHEAST IOWA

CITY           SKY/WX    TMP DP  RH WIND       PRES   REMARKS
CEDAR RAPIDS   CLOUDY    34  33  96 NW6       29.83S WCI  29
CHARLES CITY * CLOUDY    28  28 100 W15       29.84R WCI  17
CLINTON *        N/A     36  35  96 MISG        N/A  FOG
DECORAH *      CLOUDY    32  32 100 CALM      29.78R
DUBUQUE        CLOUDY    33  32  96 W3        29.82R
MONTICELLO *   CLOUDY    34  34 100 MISG      29.82F
OELWEIN *      CLOUDY    32  32 100 W8G16     29.83R WCI  25
WATERLOO       FRZ RAIN  31  30  96 W8        29.85R FOG     WCI  23
$$

IAZ064-065-067-068-078-201500-
   EAST CENTRAL IOWA

CITY           SKY/WX    TMP DP  RH WIND       PRES   REMARKS
DAVENPORT      CLOUDY    37  34  89 W8        29.87R FOG     WCI  31
IOWA CITY      CLOUDY    35  32  88 NW3       29.85F
MT. PLEASANT * CLOUDY    32  32 100 N8        29.86R WCI  25
MUSCATINE *    CLOUDY    36  34  93 NW5       29.87S WCI  32
QUAD CITIES    CLOUDY    38  36  92 W8        29.85R WCI  32
$$

IAZ062-063-075>077-085>089-095>099-201500-
   SOUTHEAST IOWA

CITY           SKY/WX    TMP DP  RH WIND       PRES   REMARKS
BURLINGTON     CLOUDY    37  35  92 N6        29.85R WCI  32
FAIRFIELD *    CLOUDY    32  32 100 NW7       29.86R FOG     WCI  26
FORT MADISON * CLOUDY    36  36 100 N6        29.85S FOG     WCI  31
KEOKUK *       CLOUDY    37  37 100 N7        29.84R FOG     WCI  32
OSKALOOSA *    LGT RAIN  31  30  97 NW8       29.87R WCI  23
OTTUMWA        CLOUDY    31  30  96 NW9       29.85R FOG     WCI  23
WASHINGTON *   CLOUDY    34  34 100 NW3       29.85S
$$

ABBREVIATIONS USED IN REMARKS
   TC - TEMPERATURES IN CELSIUS
  WCI - WIND CHILL INDEX
   HX - HEAT INDEX
  VSB - VISIBILITY
$$





USA.gov is the U.S. government's official web portal to all federal, state and local government web resources and services.